STARLINK-34086

Last updated on Mon Oct 20 2025 00:02:06 GMT+0000 (Coordinated Universal Time)

1 65734U 25216A 25292.25002315 .00024654 00000+0 62486-3 0 9998 2 65734 53.1586 272.3536 0001417 84.9281 270.3854 15.39594375 4811
UTC large
Height (km)
Speed (km/s)
/
Latitude / Longitude
Inclination (degrees)
Orbital Period (minutes)
Azimuth
Elevation
Range (km)
Doppler Factor

Next 0 passes for location: London (51.5072 / 0.1276)

Sorry there are no passes over London.